When you browse on this site, cookies collect data to enhance your experience and personalize the content and advertising you see.
Visit our Privacy Policy to learn more. By continuing to use the site, you agree to this use of cookies and data.
  • In Hungary
  • List of Countries
  • For 7 days
  • Water Temperature
  • Weather Map
  • News
  • Weather Widgets
  • user-avatar
    Login

    Hourly Weather Dubove

    Today, 26 August, Monday

    Time Temperature Precipitation Wind Pressure Humidity
    00:00 +23°C° 0 mm 5 mps 744 mmHg 47%
    01:00 +22°C° 0 mm 5 mps 744 mmHg 45%
    02:00 +22°C° 0 mm 4 mps 744 mmHg 45%
    03:00 +22°C° 0 mm 4 mps 744 mmHg 45%
    04:00 +22°C° 0 mm 4 mps 744 mmHg 44%
    05:00 +22°C° 0 mm 4 mps 744 mmHg 44%
    06:00 +23°C° 0 mm 5 mps 745 mmHg 42%
    07:00 +25°C° 0 mm 5 mps 745 mmHg 40%
    08:00 +27°C° 0 mm 5 mps 745 mmHg 39%
    09:00 +28°C° 0 mm 5 mps 745 mmHg 36%
    10:00 +29°C° 0 mm 5 mps 745 mmHg 34%
    11:00 +32°C° 0 mm 5 mps 745 mmHg 32%
    12:00 +32°C° 0 mm 5 mps 745 mmHg 31%
    13:00 +33°C° 0 mm 4 mps 745 mmHg 30%
    14:00 +33°C° 0 mm 4 mps 745 mmHg 29%
    15:00 +32°C° 0 mm 4 mps 745 mmHg 30%
    16:00 +32°C° 0 mm 5 mps 744 mmHg 32%
    17:00 +30°C° 0 mm 5 mps 744 mmHg 33%
    18:00 +28°C° 0 mm 5 mps 744 mmHg 38%
    19:00 +26°C° 0 mm 5 mps 744 mmHg 44%
    20:00 +23°C° 0 mm 4 mps 744 mmHg 49%
    21:00 +22°C° 0 mm 4 mps 744 mmHg 48%
    22:00 +21°C° 0 mm 4 mps 744 mmHg 48%
    23:00 +21°C° 0 mm 5 mps 744 mmHg 47%

    Tomorrow, 27 August, Tuesday

    Time Temperature Precipitation Wind Pressure Humidity
    00:00 +20°C° 0 mm 4 mps 744 mmHg 48%
    01:00 +19°C° 0 mm 4 mps 744 mmHg 48%
    02:00 +19°C° 0 mm 4 mps 744 mmHg 49%
    03:00 +18°C° 0 mm 4 mps 743 mmHg 50%
    04:00 +18°C° 0 mm 4 mps 743 mmHg 51%
    05:00 +17°C° 0 mm 4 mps 743 mmHg 52%
    06:00 +19°C° 0 mm 4 mps 743 mmHg 47%
    07:00 +21°C° 0 mm 5 mps 743 mmHg 42%
    08:00 +25°C° 0 mm 5 mps 744 mmHg 37%
    09:00 +26°C° 0 mm 5 mps 744 mmHg 35%
    10:00 +27°C° 0 mm 5 mps 743 mmHg 32%
    11:00 +29°C° 0 mm 5 mps 743 mmHg 29%
    12:00 +29°C° 0 mm 5 mps 743 mmHg 27%
    13:00 +29°C° 0 mm 5 mps 743 mmHg 26%
    14:00 +30°C° 0 mm 5 mps 743 mmHg 24%
    15:00 +29°C° 0 mm 5 mps 743 mmHg 25%
    16:00 +28°C° 0 mm 5 mps 743 mmHg 26%
    17:00 +27°C° 0 mm 5 mps 742 mmHg 27%
    18:00 +25°C° 0 mm 5 mps 742 mmHg 32%
    19:00 +22°C° 0 mm 4 mps 742 mmHg 37%
    20:00 +20°C° 0 mm 3 mps 742 mmHg 42%
    21:00 +19°C° 0 mm 3 mps 743 mmHg 44%
    22:00 +19°C° 0 mm 3 mps 743 mmHg 46%
    23:00 +18°C° 0 mm 3 mps 743 mmHg 48%

    Day after tomorrow, 28 August, Wednesday

    Time Temperature Precipitation Wind Pressure Humidity
    00:00 +18°C° 0 mm 3 mps 743 mmHg 51%
    01:00 +17°C° 0 mm 3 mps 743 mmHg 55%
    02:00 +17°C° 0 mm 3 mps 743 mmHg 58%
    03:00 +16°C° 0 mm 3 mps 743 mmHg 64%
    04:00 +16°C° 0 mm 3 mps 743 mmHg 69%
    05:00 +16°C° 0 mm 3 mps 743 mmHg 74%
    06:00 +18°C° 0 mm 3 mps 743 mmHg 68%
    07:00 +20°C° 0 mm 3 mps 743 mmHg 62%
    08:00 +24°C° 0 mm 3 mps 744 mmHg 56%
    09:00 +25°C° 0 mm 4 mps 743 mmHg 51%
    10:00 +26°C° 0 mm 4 mps 743 mmHg 45%
    11:00 +28°C° 0 mm 4 mps 743 mmHg 40%
    12:00 +28°C° 0 mm 4 mps 743 mmHg 40%
    13:00 +28°C° 0 mm 4 mps 743 mmHg 39%
    14:00 +28°C° 0 mm 5 mps 742 mmHg 39%
    15:00 +27°C° 0 mm 5 mps 742 mmHg 38%
    16:00 +27°C° 0 mm 4 mps 742 mmHg 37%
    17:00 +27°C° 0 mm 4 mps 742 mmHg 35%
    18:00 +25°C° 0 mm 4 mps 743 mmHg 39%
    19:00 +22°C° 0 mm 4 mps 743 mmHg 44%
    20:00 +20°C° 0 mm 5 mps 743 mmHg 48%
    21:00 +19°C° 0 mm 4 mps 743 mmHg 49%
    22:00 +18°C° 0 mm 4 mps 743 mmHg 51%
    23:00 +17°C° 0 mm 4 mps 743 mmHg 52%

    29 August, Thursday

    Time Temperature Precipitation Wind Pressure Humidity
    00:00 +15°C° 0 mm 4 mps 743 mmHg 53%
    01:00 +15°C° 0 mm 4 mps 743 mmHg 54%
    02:00 +14°C° 0 mm 5 mps 744 mmHg 54%
    03:00 +13°C° 0 mm 5 mps 744 mmHg 54%
    04:00 +12°C° 0 mm 5 mps 744 mmHg 53%
    05:00 +12°C° 0 mm 5 mps 744 mmHg 53%
    06:00 +13°C° 0 mm 5 mps 744 mmHg 49%
    07:00 +15°C° 0 mm 6 mps 744 mmHg 46%
    08:00 +16°C° 0 mm 6 mps 745 mmHg 42%
    09:00 +17°C° 0 mm 6 mps 745 mmHg 38%
    10:00 +19°C° 0 mm 6 mps 745 mmHg 35%
    11:00 +21°C° 0 mm 6 mps 745 mmHg 31%
    12:00 +21°C° 0 mm 6 mps 744 mmHg 30%
    13:00 +22°C° 0 mm 6 mps 744 mmHg 29%
    14:00 +23°C° 0 mm 6 mps 744 mmHg 28%
    15:00 +22°C° 0 mm 6 mps 744 mmHg 29%
    16:00 +22°C° 0 mm 6 mps 743 mmHg 29%
    17:00 +21°C° 0 mm 6 mps 743 mmHg 30%
    18:00 +19°C° 0 mm 5 mps 743 mmHg 34%
    19:00 +16°C° 0 mm 5 mps 743 mmHg 37%
    20:00 +15°C° 0 mm 5 mps 743 mmHg 40%
    21:00 +14°C° 0 mm 5 mps 743 mmHg 42%
    22:00 +13°C° 0 mm 5 mps 743 mmHg 43%
    23:00 +13°C° 0 mm 5 mps 743 mmHg 45%

    30 August, Friday

    Time Temperature Precipitation Wind Pressure Humidity
    00:00 +12°C° 0 mm 4 mps 743 mmHg 46%
    01:00 +12°C° 0 mm 4 mps 743 mmHg 48%
    02:00 +11°C° 0 mm 4 mps 742 mmHg 50%
    03:00 +11°C° 0 mm 4 mps 742 mmHg 51%
    04:00 +10°C° 0 mm 4 mps 742 mmHg 51%
    05:00 +10°C° 0 mm 4 mps 742 mmHg 52%
    06:00 +12°C° 0 mm 5 mps 742 mmHg 47%
    07:00 +14°C° 0 mm 5 mps 742 mmHg 42%
    08:00 +16°C° 0 mm 6 mps 743 mmHg 37%
    09:00 +19°C° 0 mm 6 mps 743 mmHg 33%
    10:00 +20°C° 0 mm 6 mps 743 mmHg 29%
    11:00 +22°C° 0 mm 6 mps 743 mmHg 26%
    12:00 +22°C° 0 mm 6 mps 743 mmHg 25%
    13:00 +23°C° 0 mm 6 mps 742 mmHg 24%
    14:00 +23°C° 0 mm 6 mps 742 mmHg 23%
    15:00 +23°C° 0 mm 6 mps 742 mmHg 24%
    16:00 +23°C° 0 mm 5 mps 742 mmHg 25%
    17:00 +22°C° 0 mm 5 mps 742 mmHg 26%
    18:00 +20°C° 0 mm 5 mps 742 mmHg 33%
    19:00 +18°C° 0 mm 4 mps 742 mmHg 40%
    20:00 +16°C° 0 mm 3 mps 742 mmHg 47%
    21:00 +16°C° 0 mm 3 mps 742 mmHg 50%
    22:00 +16°C° 0 mm 3 mps 742 mmHg 54%
    23:00 +14°C° 0 mm 3 mps 742 mmHg 58%

    31 August, Saturday

    Time Temperature Precipitation Wind Pressure Humidity
    00:00 +14°C° 0 mm 3 mps 742 mmHg 61%
    01:00 +14°C° 0 mm 3 mps 742 mmHg 65%
    02:00 +14°C° 0 mm 3 mps 742 mmHg 68%
    03:00 +13°C° 0 mm 3 mps 742 mmHg 71%
    04:00 +13°C° 0 mm 3 mps 742 mmHg 74%
    05:00 +13°C° 0 mm 3 mps 742 mmHg 77%
    06:00 +15°C° 0 mm 4 mps 743 mmHg 70%
    07:00 +18°C° 0 mm 4 mps 743 mmHg 63%
    08:00 +20°C° 0 mm 5 mps 744 mmHg 57%
    09:00 +22°C° 0 mm 5 mps 744 mmHg 51%
    10:00 +23°C° 0 mm 5 mps 744 mmHg 45%
    11:00 +25°C° 0 mm 5 mps 744 mmHg 39%
    12:00 +26°C° 0 mm 6 mps 744 mmHg 35%
    13:00 +26°C° 0 mm 6 mps 743 mmHg 31%
    14:00 +26°C° 0 mm 6 mps 743 mmHg 27%
    15:00 +24°C° 0 mm 6 mps 743 mmHg 25%
    16:00 +25°C° 0 mm 5 mps 743 mmHg 22%
    17:00 +23°C° 0 mm 5 mps 743 mmHg 19%
    18:00 +20°C° 0 mm 4 mps 743 mmHg 23%
    19:00 +18°C° 0 mm 4 mps 743 mmHg 27%
    20:00 +16°C° 0 mm 3 mps 743 mmHg 30%
    21:00 +14°C° 0 mm 3 mps 744 mmHg 32%
    22:00 +13°C° 0 mm 3 mps 744 mmHg 33%
    23:00 +13°C° 0 mm 3 mps 744 mmHg 34%
    Show more